• In Latvia
  • List of Countries
  • For 7 days
  • Water Temperature
  • Satellite Maps
  • Weather Map
  • Weather Widgets
  • user-avatar
    Login

    Hourly Weather Sankt Polten

    Today, 24 February, Saturday

    Time Temperature Precipitation Wind Pressure Humidity
    00:00 -5°C° 0 mm 2 mps 737 mmHg 89%
    01:00 -6°C° 0 mm 2 mps 737 mmHg 89%
    02:00 -6°C° 0 mm 2 mps 737 mmHg 89%
    03:00 -6°C° 0 mm 2 mps 737 mmHg 89%
    04:00 -7°C° 0 mm 2 mps 737 mmHg 89%
    05:00 -7°C° 0 mm 2 mps 737 mmHg 89%
    06:00 -7°C° 0 mm 2 mps 737 mmHg 89%
    07:00 -8°C° 0 mm 2 mps 737 mmHg 89%
    08:00 -6°C° 0 mm 2 mps 737 mmHg 81%
    09:00 -5°C° 0 mm 2 mps 737 mmHg 74%
    10:00 -3°C° 0 mm 2 mps 738 mmHg 66%
    11:00 -3°C° 0 mm 2 mps 737 mmHg 64%
    12:00 -2°C° 0 mm 3 mps 737 mmHg 62%
    13:00 -1°C° 0 mm 3 mps 737 mmHg 60%
    14:00 -1°C° 0 mm 3 mps 737 mmHg 62%
    15:00 -2°C° 0 mm 3 mps 737 mmHg 64%
    16:00 -2°C° 0 mm 3 mps 737 mmHg 66%
    17:00 -5°C° 0 mm 3 mps 738 mmHg 70%
    18:00 -6°C° 0 mm 3 mps 738 mmHg 75%
    19:00 -6°C° 0 mm 2 mps 739 mmHg 79%
    20:00 -7°C° 0 mm 2 mps 739 mmHg 80%
    21:00 -7°C° 0 mm 2 mps 739 mmHg 82%
    22:00 -8°C° 0 mm 2 mps 740 mmHg 83%
    23:00 -8°C° 0 mm 2 mps 740 mmHg 83%

    Tomorrow, 25 February, Sunday

    Time Temperature Precipitation Wind Pressure Humidity
    00:00 -8°C° 0 mm 2 mps 740 mmHg 83%
    01:00 -9°C° 0 mm 2 mps 740 mmHg 84%
    02:00 -9°C° 0 mm 2 mps 740 mmHg 84%
    03:00 -10°C° 0 mm 2 mps 740 mmHg 84%
    04:00 -10°C° 0 mm 2 mps 740 mmHg 84%
    05:00 -12°C° 0 mm 2 mps 740 mmHg 84%
    06:00 -12°C° 0 mm 2 mps 740 mmHg 84%
    07:00 -12°C° 0 mm 2 mps 740 mmHg 84%
    08:00 -10°C° 0 mm 2 mps 740 mmHg 78%
    09:00 -10°C° 0 mm 3 mps 740 mmHg 72%
    10:00 -9°C° 0 mm 3 mps 740 mmHg 67%
    11:00 -8°C° 0 mm 3 mps 740 mmHg 64%
    12:00 -8°C° 0 mm 3 mps 740 mmHg 62%
    13:00 -7°C° 0 mm 3 mps 739 mmHg 60%
    14:00 -7°C° 0 mm 3 mps 739 mmHg 62%
    15:00 -7°C° 0 mm 3 mps 739 mmHg 63%
    16:00 -8°C° 0 mm 3 mps 739 mmHg 65%
    17:00 -8°C° 0 mm 3 mps 739 mmHg 70%
    18:00 -9°C° 0 mm 3 mps 739 mmHg 74%
    19:00 -10°C° 0 mm 3 mps 739 mmHg 79%
    20:00 -10°C° 0 mm 3 mps 739 mmHg 80%
    21:00 -12°C° 0 mm 3 mps 739 mmHg 81%
    22:00 -12°C° 0 mm 3 mps 740 mmHg 82%
    23:00 -10°C° 0 mm 2 mps 739 mmHg 83%

    Day after tomorrow, 26 February, Monday

    Time Temperature Precipitation Wind Pressure Humidity
    00:00 -10°C° 0 mm 2 mps 739 mmHg 84%
    01:00 -12°C° 0 mm 2 mps 739 mmHg 85%
    02:00 -12°C° 0 mm 2 mps 739 mmHg 85%
    03:00 -12°C° 0 mm 2 mps 739 mmHg 85%
    04:00 -12°C° 0 mm 2 mps 738 mmHg 85%
    05:00 -12°C° 0 mm 2 mps 738 mmHg 86%
    06:00 -12°C° 0 mm 2 mps 738 mmHg 86%
    07:00 -12°C° 0 mm 2 mps 738 mmHg 86%
    08:00 -13°C° 0 mm 3 mps 738 mmHg 81%
    09:00 -12°C° 0 mm 3 mps 738 mmHg 75%
    10:00 -10°C° 0 mm 3 mps 738 mmHg 70%
    11:00 -9°C° 0 mm 3 mps 738 mmHg 67%
    12:00 -8°C° 0 mm 3 mps 737 mmHg 64%
    13:00 -7°C° 0 mm 3 mps 737 mmHg 61%
    14:00 -8°C° 0 mm 3 mps 737 mmHg 61%
    15:00 -9°C° 0 mm 4 mps 736 mmHg 61%
    16:00 -9°C° 0 mm 4 mps 736 mmHg 62%
    17:00 -8°C° 0 mm 3 mps 736 mmHg 65%
    18:00 -9°C° 0 mm 3 mps 736 mmHg 69%
    19:00 -10°C° 0 mm 3 mps 736 mmHg 73%
    20:00 -10°C° 0 mm 3 mps 736 mmHg 74%
    21:00 -10°C° 0 mm 3 mps 736 mmHg 75%
    22:00 -12°C° 0 mm 3 mps 736 mmHg 76%
    23:00 -10°C° 0 mm 2 mps 735 mmHg 77%

    27 February, Tuesday

    Time Temperature Precipitation Wind Pressure Humidity
    00:00 -10°C° 0 mm 2 mps 735 mmHg 78%
    01:00 -12°C° 0 mm 2 mps 735 mmHg 79%
    02:00 -12°C° 0 mm 2 mps 734 mmHg 79%
    03:00 -12°C° 0 mm 2 mps 734 mmHg 79%
    04:00 -12°C° 0 mm 2 mps 734 mmHg 79%
    05:00 -12°C° 0 mm 2 mps 734 mmHg 79%
    06:00 -12°C° 0 mm 2 mps 733 mmHg 79%
    07:00 -12°C° 0 mm 2 mps 733 mmHg 79%
    08:00 -12°C° 0 mm 2 mps 733 mmHg 75%
    09:00 -10°C° 0 mm 2 mps 733 mmHg 71%
    10:00 -10°C° 0 mm 2 mps 733 mmHg 66%
    11:00 -9°C° 0 mm 2 mps 733 mmHg 63%
    12:00 -8°C° 0 mm 2 mps 733 mmHg 60%
    13:00 -7°C° 0 mm 2 mps 732 mmHg 57%
    14:00 -7°C° 0 mm 2 mps 732 mmHg 58%
    15:00 -7°C° 0 mm 2 mps 732 mmHg 59%
    16:00 -7°C° 0 mm 2 mps 732 mmHg 60%
    17:00 -8°C° 0 mm 2 mps 732 mmHg 64%
    18:00 -8°C° 0 mm 1 mps 733 mmHg 69%
    19:00 -9°C° 0 mm 1 mps 733 mmHg 74%
    20:00 -9°C° 0 mm 1 mps 733 mmHg 75%
    21:00 -10°C° 0 mm 1 mps 734 mmHg 77%
    22:00 -10°C° 0 mm 1 mps 734 mmHg 78%
    23:00 -10°C° 0 mm 1 mps 734 mmHg 78%

    28 February, Wednesday

    Time Temperature Precipitation Wind Pressure Humidity
    00:00 -11°C° 0 mm 1 mps 734 mmHg 79%
    01:00 -11°C° 0 mm 1 mps 734 mmHg 80%
    02:00 -11°C° 0 mm 1 mps 734 mmHg 80%
    03:00 -11°C° 0 mm 1 mps 734 mmHg 80%
    04:00 -12°C° 0 mm 1 mps 734 mmHg 81%
    05:00 -12°C° 0 mm 1 mps 734 mmHg 81%
    06:00 -12°C° 0 mm 1 mps 734 mmHg 81%
    07:00 -12°C° 0 mm 1 mps 734 mmHg 81%
    08:00 -10°C° 0 mm 1 mps 734 mmHg 74%
    09:00 -8°C° 0 mm 1 mps 735 mmHg 67%
    10:00 -7°C° 0 mm 1 mps 735 mmHg 60%
    11:00 -6°C° 0 mm 1 mps 735 mmHg 58%
    12:00 -4°C° 0 mm 1 mps 734 mmHg 55%
    13:00 -5°C° 0 mm 2 mps 734 mmHg 52%
    14:00 -5°C° 0 mm 2 mps 734 mmHg 54%
    15:00 -5°C° 0 mm 2 mps 734 mmHg 56%
    16:00 -5°C° 0 mm 2 mps 734 mmHg 58%
    17:00 -6°C° 0 mm 2 mps 734 mmHg 64%
    18:00 -7°C° 0 mm 2 mps 735 mmHg 70%
    19:00 -8°C° 0 mm 2 mps 735 mmHg 77%
    20:00 -9°C° 0 mm 2 mps 735 mmHg 78%
    21:00 -9°C° 0 mm 2 mps 735 mmHg 79%
    22:00 -9°C° 0 mm 2 mps 736 mmHg 81%
    23:00 -9°C° 0 mm 2 mps 735 mmHg 83%

    1 March, Thursday

    Time Temperature Precipitation Wind Pressure Humidity
    00:00 -9°C° 0 mm 2 mps 735 mmHg 84%
    01:00 -10°C° 0 mm 2 mps 735 mmHg 86%
    02:00 -10°C° 0 mm 2 mps 734 mmHg 87%
    03:00 -10°C° 0 mm 2 mps 734 mmHg 88%
    04:00 -10°C° 0 mm 2 mps 733 mmHg 90%
    05:00 -10°C° 0 mm 2 mps 733 mmHg 89%
    06:00 -12°C° 0 mm 3 mps 733 mmHg 88%
    07:00 -10°C° 0 mm 3 mps 733 mmHg 88%
    08:00 -9°C° 0 mm 3 mps 732 mmHg 83%
    09:00 -7°C° 0 mm 3 mps 731 mmHg 79%
    10:00 -7°C° 0 mm 4 mps 731 mmHg 74%
    11:00 -4°C° 0 mm 4 mps 730 mmHg 74%
    12:00 -2°C° 0 mm 4 mps 729 mmHg 73%
    13:00 -1°C° 0 mm 4 mps 728 mmHg 72%
    14:00 -1°C° 0 mm 4 mps 728 mmHg 75%
    15:00 -1°C° 0 mm 4 mps 727 mmHg 78%
    16:00 -1°C° 0 mm 4 mps 727 mmHg 81%
    17:00 0°C° 0 mm 3 mps 727 mmHg 84%
    18:00 -1°C° 0 mm 3 mps 727 mmHg 88%
    19:00 -1°C° 0 mm 3 mps 727 mmHg 91%
    20:00 -1°C° 0 mm 3 mps 726 mmHg 92%
    21:00 -1°C° 0 mm 3 mps 726 mmHg 93%
    22:00 -1°C° 0 mm 2 mps 726 mmHg 94%
    23:00 -1°C° 0 mm 2 mps 725 mmHg 94%
    Show more